owner,sensor,date,latitude,longitude,vertical_datum,direction_of_sea_water_velocity,sea_water_speed,upward_sea_water_velocity,qcFlag 
TABS,ioos:station:wmo:42048:1,2009-04-01T00:00:00Z,27.9396,-96.8429,2.0,269.1726358,22.17230931,-99999.0,'11111222,11111222,99999999' 
TABS,ioos:station:wmo:42048:1,2009-04-01T00:30:00Z,27.9396,-96.8429,2.0,267.3922118,27.03799179,-99999.0,'11111222,11111222,99999999' 
TABS,ioos:station:wmo:42048:1,2009-04-01T01:00:00Z,27.9396,-96.8429,2.0,265.9430024,26.7169347,-99999.0,'11111222,11111222,99999999' 
TABS,ioos:station:wmo:42048:1,2009-04-01T01:30:00Z,27.9396,-96.8429,2.0,268.0701363,22.57279779,-99999.0,'11111222,11111222,99999999' 
TABS,ioos:station:wmo:42048:1,2009-04-01T02:00:00Z,27.9396,-96.8429,2.0,267.5819862,21.09877959,-99999.0,'11111222,11111222,99999999' 
TABS,ioos:station:wmo:42048:1,2009-04-01T02:30:00Z,27.9396,-96.8429,2.0,264.6944819,16.87227311,-99999.0,'11111222,11111222,99999999' 
TABS,ioos:station:wmo:42048:1,2009-04-01T03:00:00Z,27.9396,-96.8429,2.0,274.499767,17.46381974,-99999.0,'11111222,11111222,99999999' 
TABS,ioos:station:wmo:42048:1,2009-04-01T03:30:00Z,27.9396,-96.8429,2.0,275.5235491,16.72765973,-99999.0,'11111222,11111222,99999999' 
TABS,ioos:station:wmo:42048:1,2009-04-01T04:00:00Z,27.9396,-96.8429,2.0,276.2328487,14.09329628,-99999.0,'11111222,11111222,99999999' 
TABS,ioos:station:wmo:42048:1,2009-04-01T04:30:00Z,27.9396,-96.8429,2.0,280.5199086,12.65265585,-99999.0,'11111222,11111222,99999999' 
TABS,ioos:station:wmo:42048:1,2009-04-01T05:00:00Z,27.9396,-96.8429,2.0,284.9318032,9.004021324,-99999.0,'11133222,11111222,99999999' 
TABS,ioos:station:wmo:42048:1,2009-04-01T05:30:00Z,27.9396,-96.8429,2.0,246.0007448,9.588931119,-99999.0,'11133222,11111222,99999999' 
TABS,ioos:station:wmo:42048:1,2009-04-01T06:00:00Z,27.9396,-96.8429,2.0,250.1097158,12.08063326,-99999.0,'11111222,11111222,99999999' 
TABS,ioos:station:wmo:42048:1,2009-04-01T06:30:00Z,27.9396,-96.8429,2.0,238.9815657,9.04312446,-99999.0,'11133222,11111222,99999999' 
TABS,ioos:station:wmo:42048:1,2009-04-01T07:00:00Z,27.9396,-96.8429,2.0,228.1420171,10.1905888,-99999.0,'11111222,11111222,99999999' 
TABS,ioos:station:wmo:42048:1,2009-04-01T07:30:00Z,27.9396,-96.8429,2.0,224.3799916,7.191696601,-99999.0,'11133222,11111222,99999999' 
TABS,ioos:station:wmo:42048:1,2009-04-01T08:00:00Z,27.9396,-96.8429,2.0,229.7458945,9.656836956,-99999.0,'11133222,11111222,99999999' 
TABS,ioos:station:wmo:42048:1,2009-04-01T08:30:00Z,27.9396,-96.8429,2.0,225.5067122,11.1868673,-99999.0,'11111222,11111222,99999999' 
TABS,ioos:station:wmo:42048:1,2009-04-01T09:00:00Z,27.9396,-96.8429,2.0,231.9122875,8.753976239,-99999.0,'11133222,11111222,99999999' 
TABS,ioos:station:wmo:42048:1,2009-04-01T09:30:00Z,27.9396,-96.8429,2.0,229.6138515,9.229371593,-99999.0,'11133222,11111222,99999999' 
TABS,ioos:station:wmo:42048:1,2009-04-01T10:00:00Z,27.9396,-96.8429,2.0,234.6131303,11.89798722,-99999.0,'11111222,11111222,99999999' 
TABS,ioos:station:wmo:42048:1,2009-04-01T10:30:00Z,27.9396,-96.8429,2.0,223.4822737,12.8172696,-99999.0,'11111222,11111222,99999999' 
TABS,ioos:station:wmo:42048:1,2009-04-01T11:00:00Z,27.9396,-96.8429,2.0,232.031704,15.13277899,-99999.0,'11111222,11111222,99999999' 
TABS,ioos:station:wmo:42048:1,2009-04-01T11:30:00Z,27.9396,-96.8429,2.0,226.3171992,15.37656659,-99999.0,'11111222,11111222,99999999' 
TABS,ioos:station:wmo:42048:1,2009-04-01T12:00:00Z,27.9396,-96.8429,2.0,210.2771069,15.74813005,-99999.0,'11111222,11111222,99999999' 
TABS,ioos:station:wmo:42048:1,2009-04-01T12:30:00Z,27.9396,-96.8429,2.0,216.3689027,17.6226729,-99999.0,'11111222,11111222,99999999' 
TABS,ioos:station:wmo:42048:1,2009-04-01T13:00:00Z,27.9396,-96.8429,2.0,221.6685305,17.52343003,-99999.0,'11111222,11111222,99999999' 
TABS,ioos:station:wmo:42048:1,2009-04-01T13:30:00Z,27.9396,-96.8429,2.0,218.736679,20.87108047,-99999.0,'11111222,11111222,99999999' 
TABS,ioos:station:wmo:42048:1,2009-04-01T14:00:00Z,27.9396,-96.8429,2.0,218.8590825,20.62443211,-99999.0,'11111222,11111222,99999999' 
TABS,ioos:station:wmo:42048:1,2009-04-01T14:30:00Z,27.9396,-96.8429,2.0,225.1936431,20.888054,-99999.0,'11111222,11111222,99999999' 
TABS,ioos:station:wmo:42048:1,2009-04-01T15:00:00Z,27.9396,-96.8429,2.0,221.9089683,22.95071459,-99999.0,'11111222,11111222,99999999' 
TABS,ioos:station:wmo:42048:1,2009-04-01T15:30:00Z,27.9396,-96.8429,2.0,228.2139982,23.45627848,-99999.0,'11111222,11111222,99999999' 
TABS,ioos:station:wmo:42048:1,2009-04-01T16:00:00Z,27.9396,-96.8429,2.0,227.3454234,23.49563364,-99999.0,'11111222,11111222,99999999' 
TABS,ioos:station:wmo:42048:1,2009-04-01T16:30:00Z,27.9396,-96.8429,2.0,227.4659186,24.15592888,-99999.0,'11111222,11111222,99999999' 
TABS,ioos:station:wmo:42048:1,2009-04-01T17:00:00Z,27.9396,-96.8429,2.0,220.6138647,24.13351404,-99999.0,'11111222,11111222,99999999' 
TABS,ioos:station:wmo:42048:1,2009-04-01T17:30:00Z,27.9396,-96.8429,2.0,225.2354675,24.05597639,-99999.0,'11111222,11111222,99999999' 
TABS,ioos:station:wmo:42048:1,2009-04-01T18:00:00Z,27.9396,-96.8429,2.0,227.2816637,26.28278905,-99999.0,'11111222,11111222,99999999' 
TABS,ioos:station:wmo:42048:1,2009-04-01T18:30:00Z,27.9396,-96.8429,2.0,229.9289937,25.18128273,-99999.0,'11111222,11111222,99999999' 
TABS,ioos:station:wmo:42048:1,2009-04-01T19:00:00Z,27.9396,-96.8429,2.0,223.2966052,27.83694847,-99999.0,'11111222,11111222,99999999' 
TABS,ioos:station:wmo:42048:1,2009-04-01T19:30:00Z,27.9396,-96.8429,2.0,224.325649,26.44762371,-99999.0,'11111222,11111222,99999999' 
TABS,ioos:station:wmo:42048:1,2009-04-01T20:00:00Z,27.9396,-96.8429,2.0,222.6637445,24.28808762,-99999.0,'11111222,11111222,99999999' 
TABS,ioos:station:wmo:42048:1,2009-04-01T20:30:00Z,27.9396,-96.8429,2.0,224.3809649,26.19276236,-99999.0,'11111222,11111222,99999999' 
TABS,ioos:station:wmo:42048:1,2009-04-01T21:00:00Z,27.9396,-96.8429,2.0,226.3364488,24.85449658,-99999.0,'11111222,11111222,99999999' 
TABS,ioos:station:wmo:42048:1,2009-04-01T21:30:00Z,27.9396,-96.8429,2.0,224.4955431,27.32366374,-99999.0,'11111222,11111222,99999999' 
TABS,ioos:station:wmo:42048:1,2009-04-01T22:00:00Z,27.9396,-96.8429,2.0,229.1661795,26.76401502,-99999.0,'11111222,11111222,99999999' 
TABS,ioos:station:wmo:42048:1,2009-04-01T22:30:00Z,27.9396,-96.8429,2.0,228.9009117,24.73534313,-99999.0,'11111222,11111222,99999999' 
TABS,ioos:station:wmo:42048:1,2009-04-01T23:00:00Z,27.9396,-96.8429,2.0,218.0251765,26.37936504,-99999.0,'11111222,11111222,99999999' 
TABS,ioos:station:wmo:42048:1,2009-04-01T23:30:00Z,27.9396,-96.8429,2.0,221.7032096,23.11821792,-99999.0,'11111222,11111222,99999999' 
TABS,ioos:station:wmo:42048:1,2009-04-02T00:00:00Z,27.9396,-96.8429,2.0,213.8269872,22.00501988,-99999.0,'11111222,11111222,99999999' 
TABS,ioos:station:wmo:42048:1,2009-04-02T00:30:00Z,27.9396,-96.8429,2.0,226.1408809,24.85266183,-99999.0,'11111222,11111222,99999999' 
TABS,ioos:station:wmo:42048:1,2009-04-02T01:00:00Z,27.9396,-96.8429,2.0,221.7982161,25.95597234,-99999.0,'11111222,11111222,99999999' 
TABS,ioos:station:wmo:42048:1,2009-04-02T01:30:00Z,27.9396,-96.8429,2.0,225.4088151,24.75643957,-99999.0,'11111222,11111222,99999999' 
TABS,ioos:station:wmo:42048:1,2009-04-02T02:00:00Z,27.9396,-96.8429,2.0,224.9826066,23.72343356,-99999.0,'11111222,11111222,99999999' 
TABS,ioos:station:wmo:42048:1,2009-04-02T02:30:00Z,27.9396,-96.8429,2.0,216.9984998,24.89206299,-99999.0,'11111222,11111222,99999999' 
TABS,ioos:station:wmo:42048:1,2009-04-02T03:00:00Z,27.9396,-96.8429,2.0,220.4468286,23.78434149,-99999.0,'11111222,11111222,99999999' 
TABS,ioos:station:wmo:42048:1,2009-04-02T03:30:00Z,27.9396,-96.8429,2.0,215.9364351,23.70114343,-99999.0,'11111222,11111222,99999999' 
TABS,ioos:station:wmo:42048:1,2009-04-02T04:00:00Z,27.9396,-96.8429,2.0,220.4905387,24.19429892,-99999.0,'11111222,11111222,99999999' 
TABS,ioos:station:wmo:42048:1,2009-04-02T04:30:00Z,27.9396,-96.8429,2.0,216.1008024,23.99816035,-99999.0,'11111222,11111222,99999999' 
TABS,ioos:station:wmo:42048:1,2009-04-02T05:00:00Z,27.9396,-96.8429,2.0,226.53544,22.95386024,-99999.0,'11111222,11111222,99999999' 
TABS,ioos:station:wmo:42048:1,2009-04-02T05:30:00Z,27.9396,-96.8429,2.0,225.2140062,22.68414424,-99999.0,'11111222,11111222,99999999' 
TABS,ioos:station:wmo:42048:1,2009-04-02T06:00:00Z,27.9396,-96.8429,2.0,224.3057939,21.60369644,-99999.0,'11111222,11111222,99999999' 
TABS,ioos:station:wmo:42048:1,2009-04-02T06:30:00Z,27.9396,-96.8429,2.0,211.8341611,19.18604701,-99999.0,'11111222,11111222,99999999' 
TABS,ioos:station:wmo:42048:1,2009-04-02T07:00:00Z,27.9396,-96.8429,2.0,221.8635963,21.06797807,-99999.0,'11111222,11111222,99999999' 
TABS,ioos:station:wmo:42048:1,2009-04-02T07:30:00Z,27.9396,-96.8429,2.0,219.8708744,24.59974187,-99999.0,'11111222,11111222,99999999' 
TABS,ioos:station:wmo:42048:1,2009-04-02T08:00:00Z,27.9396,-96.8429,2.0,226.7702378,18.30866462,-99999.0,'11111222,11111222,99999999' 
TABS,ioos:station:wmo:42048:1,2009-04-02T08:30:00Z,27.9396,-96.8429,2.0,221.1375793,17.95178264,-99999.0,'11111222,11111222,99999999' 
TABS,ioos:station:wmo:42048:1,2009-04-02T09:00:00Z,27.9396,-96.8429,2.0,224.7494866,17.81218965,-99999.0,'11111222,11111222,99999999' 
TABS,ioos:station:wmo:42048:1,2009-04-02T09:30:00Z,27.9396,-96.8429,2.0,220.0981147,18.53742161,-99999.0,'11111222,11111222,99999999' 
TABS,ioos:station:wmo:42048:1,2009-04-02T10:00:00Z,27.9396,-96.8429,2.0,230.9665471,15.10076157,-99999.0,'11111222,11111222,99999999' 
TABS,ioos:station:wmo:42048:1,2009-04-02T10:30:00Z,27.9396,-96.8429,2.0,214.8292534,12.13369276,-99999.0,'11111222,11111222,99999999' 
TABS,ioos:station:wmo:42048:1,2009-04-02T11:00:00Z,27.9396,-96.8429,2.0,217.1444369,14.17616309,-99999.0,'11111222,11111222,99999999' 
TABS,ioos:station:wmo:42048:1,2009-04-02T11:30:00Z,27.9396,-96.8429,2.0,233.1720367,16.26600443,-99999.0,'11111222,11111222,99999999' 
TABS,ioos:station:wmo:42048:1,2009-04-02T12:00:00Z,27.9396,-96.8429,2.0,228.469625,14.25311896,-99999.0,'11111222,11111222,99999999' 
TABS,ioos:station:wmo:42048:1,2009-04-02T12:30:00Z,27.9396,-96.8429,2.0,227.9115007,13.91969109,-99999.0,'11111222,11111222,99999999' 
TABS,ioos:station:wmo:42048:1,2009-04-02T13:00:00Z,27.9396,-96.8429,2.0,229.3938902,13.84341721,-99999.0,'11111222,11111222,99999999' 
TABS,ioos:station:wmo:42048:1,2009-04-02T13:30:00Z,27.9396,-96.8429,2.0,236.4078862,14.54980756,-99999.0,'11111222,11111222,99999999' 
TABS,ioos:station:wmo:42048:1,2009-04-02T14:00:00Z,27.9396,-96.8429,2.0,218.3914025,14.6851796,-99999.0,'11111222,11111222,99999999' 
TABS,ioos:station:wmo:42048:1,2009-04-02T14:30:00Z,27.9396,-96.8429,2.0,221.7346795,12.66362507,-99999.0,'11111222,11111222,99999999' 
TABS,ioos:station:wmo:42048:1,2009-04-02T15:00:00Z,27.9396,-96.8429,2.0,197.4376469,13.44804075,-99999.0,'11111222,11111222,99999999' 
TABS,ioos:station:wmo:42048:1,2009-04-02T15:30:00Z,27.9396,-96.8429,2.0,195.9039382,17.18793181,-99999.0,'11111222,11111222,99999999' 
TABS,ioos:station:wmo:42048:1,2009-04-02T16:00:00Z,27.9396,-96.8429,2.0,213.8250369,17.62287434,-99999.0,'11111222,11111222,99999999' 
TABS,ioos:station:wmo:42048:1,2009-04-02T16:30:00Z,27.9396,-96.8429,2.0,208.6468721,19.94100298,-99999.0,'11111222,11111222,99999999' 
TABS,ioos:station:wmo:42048:1,2009-04-02T17:00:00Z,27.9396,-96.8429,2.0,197.1134484,19.20013021,-99999.0,'11111222,11111222,99999999' 
TABS,ioos:station:wmo:42048:1,2009-04-02T17:30:00Z,27.9396,-96.8429,2.0,193.9147558,18.33815967,-99999.0,'11111222,11111222,99999999' 
TABS,ioos:station:wmo:42048:1,2009-04-02T18:00:00Z,27.9396,-96.8429,2.0,202.0346114,18.68482004,-99999.0,'11111222,11111222,99999999' 
TABS,ioos:station:wmo:42048:1,2009-04-02T18:30:00Z,27.9396,-96.8429,2.0,201.7343699,15.93267084,-99999.0,'11111222,11111222,99999999' 
TABS,ioos:station:wmo:42048:1,2009-04-02T19:00:00Z,27.9396,-96.8429,2.0,191.8540395,16.30779262,-99999.0,'11111222,11111222,99999999' 
TABS,ioos:station:wmo:42048:1,2009-04-02T19:30:00Z,27.9396,-96.8429,2.0,186.0384132,17.20547006,-99999.0,'11111222,11111222,99999999' 
TABS,ioos:station:wmo:42048:1,2009-04-02T20:00:00Z,27.9396,-96.8429,2.0,204.5531552,15.16093994,-99999.0,'11111222,11111222,99999999' 
TABS,ioos:station:wmo:42048:1,2009-04-02T20:30:00Z,27.9396,-96.8429,2.0,196.0355348,16.54372691,-99999.0,'11111222,11111222,99999999' 
TABS,ioos:station:wmo:42048:1,2009-04-02T21:00:00Z,27.9396,-96.8429,2.0,206.1244749,13.966893,-99999.0,'11111222,11111222,99999999' 
TABS,ioos:station:wmo:42048:1,2009-04-02T21:30:00Z,27.9396,-96.8429,2.0,206.7583442,13.23759797,-99999.0,'11111222,11111222,99999999' 
TABS,ioos:station:wmo:42048:1,2009-04-02T22:00:00Z,27.9396,-96.8429,2.0,196.530189,15.60497357,-99999.0,'11111222,11111222,99999999' 
TABS,ioos:station:wmo:42048:1,2009-04-02T22:30:00Z,27.9396,-96.8429,2.0,193.9652102,15.70419371,-99999.0,'11111222,11111222,99999999' 
TABS,ioos:station:wmo:42048:1,2009-04-02T23:00:00Z,27.9396,-96.8429,2.0,208.411312,15.40556393,-99999.0,'11111222,11111222,99999999' 
TABS,ioos:station:wmo:42048:1,2009-04-02T23:30:00Z,27.9396,-96.8429,2.0,187.8732312,12.6290538,-99999.0,'11111222,11111222,99999999' 
TABS,ioos:station:wmo:42048:1,2009-04-03T00:00:00Z,27.9396,-96.8429,2.0,209.4957563,13.99373074,-99999.0,'11111222,11111222,99999999' 
TABS,ioos:station:wmo:42048:1,2009-04-03T00:30:00Z,27.9396,-96.8429,2.0,197.9965893,18.61054808,-99999.0,'11111222,11111222,99999999' 
TABS,ioos:station:wmo:42048:1,2009-04-03T01:00:00Z,27.9396,-96.8429,2.0,199.9411914,15.27591896,-99999.0,'11111222,11111222,99999999' 
TABS,ioos:station:wmo:42048:1,2009-04-03T01:30:00Z,27.9396,-96.8429,2.0,211.4312113,14.0753579,-99999.0,'11111222,11111222,99999999' 
TABS,ioos:station:wmo:42048:1,2009-04-03T02:00:00Z,27.9396,-96.8429,2.0,213.1995601,15.55991003,-99999.0,'11111222,11111222,99999999' 
TABS,ioos:station:wmo:42048:1,2009-04-03T02:30:00Z,27.9396,-96.8429,2.0,221.6085471,15.42071659,-99999.0,'11111222,11111222,99999999' 
TABS,ioos:station:wmo:42048:1,2009-04-03T03:00:00Z,27.9396,-96.8429,2.0,210.1862548,14.16022599,-99999.0,'11111222,11111222,99999999' 
TABS,ioos:station:wmo:42048:1,2009-04-03T03:30:00Z,27.9396,-96.8429,2.0,220.4636398,14.93136631,-99999.0,'11111222,11111222,99999999' 
TABS,ioos:station:wmo:42048:1,2009-04-03T04:00:00Z,27.9396,-96.8429,2.0,217.5789996,16.31525053,-99999.0,'11111222,11111222,99999999' 
TABS,ioos:station:wmo:42048:1,2009-04-03T04:30:00Z,27.9396,-96.8429,2.0,219.699767,16.68835522,-99999.0,'11111222,11111222,99999999' 
TABS,ioos:station:wmo:42048:1,2009-04-03T05:00:00Z,27.9396,-96.8429,2.0,220.0815351,10.88710246,-99999.0,'11111222,11111222,99999999' 
TABS,ioos:station:wmo:42048:1,2009-04-03T05:30:00Z,27.9396,-96.8429,2.0,221.0127988,14.03467848,-99999.0,'11111222,11111222,99999999' 
TABS,ioos:station:wmo:42048:1,2009-04-03T06:00:00Z,27.9396,-96.8429,2.0,231.589933,9.303359608,-99999.0,'11133222,11111222,99999999' 
TABS,ioos:station:wmo:42048:1,2009-04-03T06:30:00Z,27.9396,-96.8429,2.0,219.4056318,8.994809614,-99999.0,'11133222,11111222,99999999' 
TABS,ioos:station:wmo:42048:1,2009-04-03T07:00:00Z,27.9396,-96.8429,2.0,214.3046869,11.88790982,-99999.0,'11111222,11111222,99999999' 
TABS,ioos:station:wmo:42048:1,2009-04-03T07:30:00Z,27.9396,-96.8429,2.0,233.9570841,11.08115517,-99999.0,'11111222,11111222,99999999' 
TABS,ioos:station:wmo:42048:1,2009-04-03T08:00:00Z,27.9396,-96.8429,2.0,209.8956882,8.46664042,-99999.0,'11133222,11111222,99999999' 
TABS,ioos:station:wmo:42048:1,2009-04-03T08:30:00Z,27.9396,-96.8429,2.0,220.92039,9.144845543,-99999.0,'11133222,11111222,99999999' 
TABS,ioos:station:wmo:42048:1,2009-04-03T09:00:00Z,27.9396,-96.8429,2.0,208.7018861,9.474101541,-99999.0,'11133222,11111222,99999999' 
TABS,ioos:station:wmo:42048:1,2009-04-03T09:30:00Z,27.9396,-96.8429,2.0,220.3137954,9.953979104,-99999.0,'11133222,11111222,99999999' 
TABS,ioos:station:wmo:42048:1,2009-04-03T10:00:00Z,27.9396,-96.8429,2.0,227.1146377,9.771801267,-99999.0,'11133222,11111222,99999999' 
TABS,ioos:station:wmo:42048:1,2009-04-03T10:30:00Z,27.9396,-96.8429,2.0,209.6167774,11.67541862,-99999.0,'11111222,11111222,99999999' 
TABS,ioos:station:wmo:42048:1,2009-04-03T11:00:00Z,27.9396,-96.8429,2.0,218.993088,8.852078852,-99999.0,'11133222,11111222,99999999' 
TABS,ioos:station:wmo:42048:1,2009-04-03T11:30:00Z,27.9396,-96.8429,2.0,218.008992,9.353849475,-99999.0,'11133222,11111222,99999999' 
TABS,ioos:station:wmo:42048:1,2009-04-03T12:00:00Z,27.9396,-96.8429,2.0,205.6891491,10.24238742,-99999.0,'11111222,11111222,99999999' 
TABS,ioos:station:wmo:42048:1,2009-04-03T12:30:00Z,27.9396,-96.8429,2.0,204.7534452,9.338013707,-99999.0,'11133222,11111222,99999999' 
TABS,ioos:station:wmo:42048:1,2009-04-03T13:00:00Z,27.9396,-96.8429,2.0,209.1463467,6.652345451,-99999.0,'11133222,11111222,99999999' 
TABS,ioos:station:wmo:42048:1,2009-04-03T13:30:00Z,27.9396,-96.8429,2.0,220.3022235,9.152420445,-99999.0,'11133222,11111222,99999999' 
TABS,ioos:station:wmo:42048:1,2009-04-03T14:00:00Z,27.9396,-96.8429,2.0,200.966878,7.014456501,-99999.0,'11133222,11111222,99999999' 
TABS,ioos:station:wmo:42048:1,2009-04-03T14:30:00Z,27.9396,-96.8429,2.0,178.834615,5.901220213,-99999.0,'11133222,11111222,99999999' 
TABS,ioos:station:wmo:42048:1,2009-04-03T15:00:00Z,27.9396,-96.8429,2.0,179.101108,7.650941119,-99999.0,'11133222,11111222,99999999' 
TABS,ioos:station:wmo:42048:1,2009-04-03T15:30:00Z,27.9396,-96.8429,2.0,185.2459483,6.01519742,-99999.0,'11133222,11111222,99999999' 
TABS,ioos:station:wmo:42048:1,2009-04-03T16:00:00Z,27.9396,-96.8429,2.0,185.9174289,8.535484755,-99999.0,'11133222,11111222,99999999' 
TABS,ioos:station:wmo:42048:1,2009-04-03T16:30:00Z,27.9396,-96.8429,2.0,190.0247392,5.859462433,-99999.0,'11133222,11111222,99999999' 
TABS,ioos:station:wmo:42048:1,2009-04-03T17:00:00Z,27.9396,-96.8429,2.0,159.6592622,6.846955528,-99999.0,'11133222,11111222,99999999' 
TABS,ioos:station:wmo:42048:1,2009-04-03T17:30:00Z,27.9396,-96.8429,2.0,176.7567964,6.540473989,-99999.0,'11133222,11111222,99999999' 
TABS,ioos:station:wmo:42048:1,2009-04-03T18:00:00Z,27.9396,-96.8429,2.0,173.7417215,3.852959901,-99999.0,'11133222,11111222,99999999' 
TABS,ioos:station:wmo:42048:1,2009-04-03T18:30:00Z,27.9396,-96.8429,2.0,183.5596773,4.348390507,-99999.0,'11133222,11111222,99999999' 
TABS,ioos:station:wmo:42048:1,2009-04-03T19:00:00Z,27.9396,-96.8429,2.0,159.0220314,4.134005322,-99999.0,'11133222,11111222,99999999' 
TABS,ioos:station:wmo:42048:1,2009-04-03T19:30:00Z,27.9396,-96.8429,2.0,145.7457269,5.916164298,-99999.0,'11133222,11111222,99999999' 
TABS,ioos:station:wmo:42048:1,2009-04-03T20:00:00Z,27.9396,-96.8429,2.0,139.2890381,5.672741841,-99999.0,'11133222,11111222,99999999' 
TABS,ioos:station:wmo:42048:1,2009-04-03T20:30:00Z,27.9396,-96.8429,2.0,100.8330211,3.298787656,-99999.0,'11133222,11111222,99999999' 
TABS,ioos:station:wmo:42048:1,2009-04-03T21:00:00Z,27.9396,-96.8429,2.0,210.9313032,3.054390283,-99999.0,'11133222,11111222,99999999' 
TABS,ioos:station:wmo:42048:1,2009-04-03T21:30:00Z,27.9396,-96.8429,2.0,139.3541057,4.191097708,-99999.0,'11133222,11111222,99999999' 
TABS,ioos:station:wmo:42048:1,2009-04-03T22:00:00Z,27.9396,-96.8429,2.0,118.8927987,2.752635101,-99999.0,'11133222,11111222,99999999' 
TABS,ioos:station:wmo:42048:1,2009-04-03T22:30:00Z,27.9396,-96.8429,2.0,164.6807248,3.141623784,-99999.0,'11133222,11111222,99999999' 
TABS,ioos:station:wmo:42048:1,2009-04-03T23:00:00Z,27.9396,-96.8429,2.0,55.0607715,0.890505474,-99999.0,'11133222,11111222,99999999' 
TABS,ioos:station:wmo:42048:1,2009-04-03T23:30:00Z,27.9396,-96.8429,2.0,45.92788883,3.493565514,-99999.0,'11133222,11111222,99999999' 
TABS,ioos:station:wmo:42048:1,2009-04-04T00:00:00Z,27.9396,-96.8429,2.0,68.03509585,1.951665955,-99999.0,'11133222,11111222,99999999' 
TABS,ioos:station:wmo:42048:1,2009-04-04T00:30:00Z,27.9396,-96.8429,2.0,70.08583826,3.552421709,-99999.0,'11133222,11111222,99999999' 
TABS,ioos:station:wmo:42048:1,2009-04-04T01:00:00Z,27.9396,-96.8429,2.0,60.50053661,5.503471632,-99999.0,'11133222,11111222,99999999' 
TABS,ioos:station:wmo:42048:1,2009-04-04T01:30:00Z,27.9396,-96.8429,2.0,14.77623367,8.077109632,-99999.0,'11133222,11111222,99999999' 
TABS,ioos:station:wmo:42048:1,2009-04-04T02:00:00Z,27.9396,-96.8429,2.0,34.0911053,9.116720902,-99999.0,'11133222,11111222,99999999' 
TABS,ioos:station:wmo:42048:1,2009-04-04T02:30:00Z,27.9396,-96.8429,2.0,38.36406968,10.58559871,-99999.0,'11111222,11111222,99999999' 
TABS,ioos:station:wmo:42048:1,2009-04-04T03:00:00Z,27.9396,-96.8429,2.0,47.51210989,10.97069733,-99999.0,'11111222,11111222,99999999' 
TABS,ioos:station:wmo:42048:1,2009-04-04T03:30:00Z,27.9396,-96.8429,2.0,46.27845698,10.1424356,-99999.0,'11111222,11111222,99999999' 
TABS,ioos:station:wmo:42048:1,2009-04-04T04:00:00Z,27.9396,-96.8429,2.0,23.3557207,9.106135294,-99999.0,'11133222,11111222,99999999' 
TABS,ioos:station:wmo:42048:1,2009-04-04T04:30:00Z,27.9396,-96.8429,2.0,46.02975076,9.837443774,-99999.0,'11133222,11111222,99999999' 
TABS,ioos:station:wmo:42048:1,2009-04-04T05:00:00Z,27.9396,-96.8429,2.0,43.1647402,12.80520207,-99999.0,'11111222,11111222,99999999' 
TABS,ioos:station:wmo:42048:1,2009-04-04T05:30:00Z,27.9396,-96.8429,2.0,42.9839294,12.86316446,-99999.0,'11111222,11111222,99999999' 
TABS,ioos:station:wmo:42048:1,2009-04-04T06:00:00Z,27.9396,-96.8429,2.0,51.43882977,13.61993392,-99999.0,'11111222,11111222,99999999' 
TABS,ioos:station:wmo:42048:1,2009-04-04T06:30:00Z,27.9396,-96.8429,2.0,48.60786851,10.45053587,-99999.0,'11111222,11111222,99999999' 
TABS,ioos:station:wmo:42048:1,2009-04-04T07:00:00Z,27.9396,-96.8429,2.0,54.81027028,16.84924331,-99999.0,'11111222,11111222,99999999' 
TABS,ioos:station:wmo:42048:1,2009-04-04T07:30:00Z,27.9396,-96.8429,2.0,62.98677251,16.0062644,-99999.0,'11111222,11111222,99999999' 
TABS,ioos:station:wmo:42048:1,2009-04-04T08:00:00Z,27.9396,-96.8429,2.0,50.53335458,13.64000733,-99999.0,'11111222,11111222,99999999' 
TABS,ioos:station:wmo:42048:1,2009-04-04T08:30:00Z,27.9396,-96.8429,2.0,57.7734503,9.882433911,-99999.0,'11133222,11111222,99999999' 
TABS,ioos:station:wmo:42048:1,2009-04-04T09:00:00Z,27.9396,-96.8429,2.0,52.02333656,12.83839554,-99999.0,'11111222,11111222,99999999' 
TABS,ioos:station:wmo:42048:1,2009-04-04T09:30:00Z,27.9396,-96.8429,2.0,41.81493131,12.59889281,-99999.0,'11111222,11111222,99999999' 
TABS,ioos:station:wmo:42048:1,2009-04-04T10:00:00Z,27.9396,-96.8429,2.0,44.93148772,11.80869171,-99999.0,'11111222,11111222,99999999' 
TABS,ioos:station:wmo:42048:1,2009-04-04T10:30:00Z,27.9396,-96.8429,2.0,58.95296469,11.78882522,-99999.0,'11111222,11111222,99999999' 
TABS,ioos:station:wmo:42048:1,2009-04-04T11:00:00Z,27.9396,-96.8429,2.0,46.80471352,10.32888184,-99999.0,'11111222,11111222,99999999' 
TABS,ioos:station:wmo:42048:1,2009-04-04T11:30:00Z,27.9396,-96.8429,2.0,41.24095701,9.814545328,-99999.0,'11133222,11111222,99999999' 
TABS,ioos:station:wmo:42048:1,2009-04-04T12:00:00Z,27.9396,-96.8429,2.0,42.90935302,9.884862164,-99999.0,'11133222,11111222,99999999' 
TABS,ioos:station:wmo:42048:1,2009-04-04T12:30:00Z,27.9396,-96.8429,2.0,48.19546782,7.230802169,-99999.0,'11133222,11111222,99999999' 
TABS,ioos:station:wmo:42048:1,2009-04-04T13:00:00Z,27.9396,-96.8429,2.0,45.17505322,9.263142016,-99999.0,'11133222,11111222,99999999' 
TABS,ioos:station:wmo:42048:1,2009-04-04T13:30:00Z,27.9396,-96.8429,2.0,39.68877578,8.78462862,-99999.0,'11133222,11111222,99999999' 
TABS,ioos:station:wmo:42048:1,2009-04-04T14:00:00Z,27.9396,-96.8429,2.0,41.45239972,9.713047925,-99999.0,'11133222,11111222,99999999' 
TABS,ioos:station:wmo:42048:1,2009-04-04T14:30:00Z,27.9396,-96.8429,2.0,41.59842249,8.103579456,-99999.0,'11133222,11111222,99999999' 
TABS,ioos:station:wmo:42048:1,2009-04-04T15:00:00Z,27.9396,-96.8429,2.0,29.34565879,7.651888656,-99999.0,'11133222,11111222,99999999' 
TABS,ioos:station:wmo:42048:1,2009-04-04T15:30:00Z,27.9396,-96.8429,2.0,31.01188088,8.190775299,-99999.0,'11133222,11111222,99999999' 
TABS,ioos:station:wmo:42048:1,2009-04-04T16:00:00Z,27.9396,-96.8429,2.0,48.45301748,8.805322254,-99999.0,'11133222,11111222,99999999' 